logo meteosicilia

Diretta Meteo Comiso As Usaf, Italiasabato 15 giugno ore 05:50

Mappa
Sereno 14 °C Sereno 24 Ore: T.min 14 T.max 28
Ponente Nord Km/h 5.5 Punto di rugiada: 7 °C Umidità: 62% Visibilità: 10 Km
Il sole sorge alle: 05:40 Il sole tramonta alle: 20:24
15 Giugno 2024 05:50 tempo osservato: Sereno Sereno 14 62 1016 vento: Nord N 5.5
15 Giugno 2024 05:20 tempo osservato: Sereno Sereno 14 62 1016 vento: Nord N 5.5
15 Giugno 2024 04:50 tempo osservato: Sereno Sereno 14 62 1016 vento: Nord N 5.5
15 Giugno 2024 04:20 tempo osservato: Sereno Sereno 15 58 1016 vento: Nord N 5.5
15 Giugno 2024 03:50 tempo osservato: Sereno Sereno 14 67 1016 vento: Nord N 5.5
15 Giugno 2024 03:20 tempo osservato: Sereno Sereno 15 58 1016 vento: Nord NE 9.3
15 Giugno 2024 02:50 tempo osservato: Sereno Sereno 15 62 1016 vento: Nord NE 9.3
15 Giugno 2024 02:20 tempo osservato: Sereno Sereno 16 63 1017 vento: Nord NE 9.3
15 Giugno 2024 01:50 tempo osservato: Sereno Sereno 15 67 1017 vento: Nord N 5.5
15 Giugno 2024 01:20 tempo osservato: Sereno Sereno 17 63 1017 vento: Nord NE 9.3
15 Giugno 2024 00:50 tempo osservato: Sereno Sereno 17 55 1018 vento: Nord N 3.7
15 Giugno 2024 00:20 tempo osservato: Sereno Sereno 17 59 1018 vento: Nord E 9.3
14 Giugno 2024 23:50 tempo osservato: Sereno Sereno 18 59 1018 vento: Nord E/NE 9.3
14 Giugno 2024 23:20 tempo osservato: Sereno Sereno 17 63 1018 vento: Nord N 5.5
14 Giugno 2024 22:50 tempo osservato: Sereno Sereno 18 59 1018 vento: Nord N 5.5
14 Giugno 2024 22:20 tempo osservato: Sereno Sereno 19 55 1019 vento: Nord N 5.5
14 Giugno 2024 21:50 tempo osservato: Sereno Sereno 21 49 1018 vento: Nord N 1.8
14 Giugno 2024 21:20 tempo osservato: Sereno Sereno 21 49 1018 vento: Nord N 3.7
14 Giugno 2024 20:50 tempo osservato: Sereno Sereno 21 49 1018 vento: Nord N 5.5
14 Giugno 2024 20:20 tempo osservato: Sereno Sereno 22 46 1018 vento: Nord O 7.4
14 Giugno 2024 19:50 tempo osservato: Sereno Sereno 23 46 1018 vento: Nord O 11.1
14 Giugno 2024 19:20 tempo osservato: Sereno Sereno 24 43 1018 vento: Nord O 11.1
14 Giugno 2024 18:50 tempo osservato: Sereno Sereno 24 47 1018 vento: Nord O/SO 14.8
14 Giugno 2024 18:20 tempo osservato: Sereno Sereno 25 50 1018 vento: Nord O 16.7
14 Giugno 2024 17:50 tempo osservato: Sereno Sereno 25 50 1018 vento: Nord O/SO 18.5
14 Giugno 2024 17:20 tempo osservato: Sereno Sereno 26 47 1018 vento: Nord SO 14.8
14 Giugno 2024 16:50 tempo osservato: Sereno Sereno 26 47 1018 vento: Nord O/SO 14.8
14 Giugno 2024 16:20 tempo osservato: Sereno Sereno 26 44 1018 vento: Nord SO 16.7
14 Giugno 2024 15:50 tempo osservato: Sereno Sereno 26 47 1018 vento: Nord SO 16.7
14 Giugno 2024 15:20 tempo osservato: Sereno Sereno 27 44 1018 vento: Nord O/SO 20.3
14 Giugno 2024 14:50 tempo osservato: Sereno Sereno 27 44 1018 vento: Nord SO 22.2
14 Giugno 2024 14:20 tempo osservato: Sereno Sereno 28 45 1018 vento: Nord SO 20.3
14 Giugno 2024 13:50 tempo osservato: Sereno Sereno 27 47 1018 vento: Nord SO 18.5
14 Giugno 2024 13:20 tempo osservato: Sereno Sereno 27 44 1018 vento: Nord SO 14.8
14 Giugno 2024 12:50 tempo osservato: Sereno Sereno 27 44 1018 vento: Nord O 18.5
14 Giugno 2024 12:20 tempo osservato: Sereno Sereno 26 47 1018 vento: Nord SO 16.7
14 Giugno 2024 11:50 tempo osservato: Sereno Sereno 27 42 1019 vento: Nord S/SO 13
14 Giugno 2024 11:20 tempo osservato: Sereno Sereno 27 44 1018 vento: Nord N 9.3
14 Giugno 2024 10:50 tempo osservato: Sereno Sereno 26 47 1018 vento: Nord O/SO 14.8
14 Giugno 2024 10:20 tempo osservato: Sereno Sereno 26 47 1018 vento: Nord O 13
14 Giugno 2024 09:50 tempo osservato: Poco Nuvoloso Poco Nuvoloso 25 50 1018 vento: Nord N 7.4
14 Giugno 2024 09:20 tempo osservato: Poco Nuvoloso Poco Nuvoloso 25 50 1018 vento: Nord N 5.5
14 Giugno 2024 08:50 tempo osservato: Sereno Sereno 24 50 1018 vento: Nord N/NO 7.4
14 Giugno 2024 08:20 tempo osservato: Sereno Sereno 24 53 1018 vento: Nord N 5.5
14 Giugno 2024 07:50 tempo osservato: Sereno Sereno 23 53 1018 vento: Nord N 5.5
14 Giugno 2024 07:20 tempo osservato: Sereno Sereno 22 49 1018 vento: Nord NE 7.4
14 Giugno 2024 06:50 tempo osservato: Sereno Sereno 19 63 1018 vento: Nord NE 7.4